Weather History for Dallas/Ft Worth, TX

Change the Weather History Date:

Friday, January 4, 2013

  Actual Average Record
Temperature  
Mean Temperature 45 °F 45 °F  
Max Temperature 50 °F 56 °F 81 °F (1921)
Min Temperature 39 °F 35 °F 4 °F (1947)
Degree Days  
Heating Degree Days 20 20  
Month to date heating degree days 98 80  
Since 1 July heating degree days 838 992  
Cooling Degree Days 0 0  
Month to date cooling degree days 0 0  
Year to date cooling degree days 0 0  
Moisture  
Dew Point 30 °F    
Average Humidity 56    
Maximum Humidity 70    
Minimum Humidity 42    
Precipitation  
Precipitation T in 0.07 in 3.15 in (1998)
Month to date precipitation 0.01 0.26  
Year to date precipitation 0.01 0.26  
Snow  
Snow 0.00 in 0.00 in 1.00 in (1950)
Month to date snowfall 0.0 0.0  
Since 1 July snowfall 0.5 0.3  
Snow Depth 0.00 in    
Sea Level Pressure  
Sea Level Pressure 30.43 in    
Wind  
Wind Speed 4 mph (North)    
Max Wind Speed 9 mph    
Max Gust Speed 12 mph    
Visibility 10 miles    
Events      
T = Trace of Precipitation, MM = Missing Value Source: NWS Daily Summary

Daily Weather History Graph

Daily Weather History Graph

Search for Another Location

Airport:

Trip Planner

Search our weather history database for the weather conditions in past years. The results will help you decide how hot, cold, wet, or windy it might be!

Date:

Astronomy

Jan. 04, 2013 Rise Set
Actual Time 7:31 AM CST 5:35 PM CST
Civil Twilight 7:04 AM CST 6:02 PM CST
Nautical Twilight 6:33 AM CST 6:33 PM CST
Astronomical Twilight 6:03 AM CST 7:03 PM CST
Moon No Moon Rise 11:39 AM CST (1/4)
Length of Visible Light 10h 58m
Length of Day
10h 03m
Waning Gibbous, 55% of the Moon is Illuminated
Jan 4
Waning Gibbous
Jan 4
Last Quarter
Jan 11
New
Jan 18
First Quarter
Jan 26
Full

Hourly Weather History & Observations

Time (CST) Temp. Windchill Dew Point Humidity Pressure Visibility Wind Dir Wind Speed Gust Speed Precip Events Conditions
12:53 AM 39.9 °F 35.1 °F 30.0 °F 68% 30.43 in 10.0 mi North 6.9 mph - N/A   Mostly Cloudy
1:53 AM 39.9 °F 34.5 °F 30.9 °F 70% 30.42 in 10.0 mi North 8.1 mph - N/A   Mostly Cloudy
2:53 AM 39.9 °F 36.7 °F 28.9 °F 65% 30.45 in 10.0 mi NNW 4.6 mph - N/A   Overcast
3:53 AM 41.0 °F 39.0 °F 28.0 °F 60% 30.47 in 10.0 mi NNW 3.5 mph - N/A   Overcast
4:53 AM 39.9 °F 37.8 °F 28.0 °F 63% 30.48 in 10.0 mi WNW 3.5 mph - N/A   Overcast
5:53 AM 39.9 °F - 28.0 °F 63% 30.48 in 10.0 mi Calm Calm - N/A   Overcast
6:53 AM 39.2 °F 35.9 °F 28.4 °F 65% 30.49 in 10.0 mi West 4.6 mph - N/A   Overcast
7:53 AM 41.0 °F 36.4 °F 28.0 °F 60% 30.48 in 10.0 mi NW 6.9 mph - N/A   Overcast
8:53 AM 41.0 °F 37.1 °F 28.9 °F 62% 30.50 in 10.0 mi North 5.8 mph - N/A   Overcast
9:53 AM 42.1 °F - 30.0 °F 62% 30.52 in 10.0 mi Calm Calm - N/A   Overcast
10:53 AM 43.0 °F 40.3 °F 30.9 °F 62% 30.52 in 10.0 mi North 4.6 mph - N/A   Overcast
11:53 AM 45.0 °F 42.6 °F 30.9 °F 58% 30.49 in 10.0 mi NNE 4.6 mph - N/A   Overcast
12:53 PM 46.0 °F - 30.0 °F 54% 30.45 in 10.0 mi Calm Calm - N/A   Overcast
1:53 PM 46.9 °F - 30.0 °F 52% 30.42 in 10.0 mi Calm Calm - N/A   Mostly Cloudy
2:53 PM 48.9 °F - 28.9 °F 46% 30.40 in 10.0 mi North 3.5 mph - N/A   Mostly Cloudy
3:53 PM 50.0 °F - 28.9 °F 44% 30.39 in 10.0 mi Variable 4.6 mph - N/A   Mostly Cloudy
4:53 PM 48.0 °F - 28.0 °F 46% 30.38 in 10.0 mi Calm Calm - N/A   Mostly Cloudy
5:53 PM 46.0 °F 43.9 °F 30.0 °F 54% 30.38 in 10.0 mi ENE 4.6 mph - N/A   Overcast
6:53 PM 46.9 °F - 28.9 °F 50% 30.38 in 10.0 mi East 5.8 mph - N/A   Overcast
7:53 PM 46.0 °F 44.8 °F 30.0 °F 54% 30.39 in 10.0 mi East 3.5 mph - N/A   Overcast
8:53 PM 46.0 °F 43.1 °F 30.0 °F 54% 30.38 in 10.0 mi ESE 5.8 mph - N/A   Overcast
9:53 PM 45.0 °F 43.5 °F 30.0 °F 56% 30.38 in 10.0 mi SE 3.5 mph - N/A   Overcast
10:53 PM 46.0 °F 42.5 °F 30.0 °F 54% 30.37 in 10.0 mi South 6.9 mph - N/A   Overcast
11:53 PM 45.0 °F 41.2 °F 34.0 °F 65% 30.36 in 10.0 mi SSW 6.9 mph - 0.00 in   Overcast